1297728027763,112.714
1297728087763,112.488
1297728147763,112.560
1297728207763,112.568
1297728267763,112.659
1297728327763,112.630
1297728387763,112.821
1297728447763,112.532
1297728507763,112.352
1297728567763,112.638
1297728627763,112.373
1297728687763,112.658
1297728747763,112.452
1297728807763,112.566
1297728867763,112.559
1297728927763,112.442
1297728987763,112.367
1297729047763,112.359
1297729107763,112.388
1297729167763,112.301
1297729227763,112.171
1297729287763,112.407
1297729347763,112.129
1297729407763,112.270
1297729467763,112.148
1297729527763,112.158
1297729587763,112.186
1297729647763,112.321
1297729707763,112.013
1297729767763,112.152
1297729827763,112.119
1297729887763,111.991
1297729947763,112.089
1297730007763,112.115
1297730067763,112.135
1297730127763,112.327
1297730187763,112.680
1297730247763,112.842
1297730307763,112.601
1297730367763,112.610
1297730427763,112.388
1297730487763,112.404
1297730547763,112.185
1297730607763,112.291
1297730667763,111.968
1297730727763,111.911
1297730787763,111.826
1297730847763,111.984
1297730907763,111.848
1297730967763,112.040
1297731027763,111.842
1297731087763,111.950
1297731147763,111.810
1297731207763,111.769
1297731267763,111.820
1297731327763,111.828
1297731387763,111.898
1297731447763,111.590
1297731507763,111.708
1297731567763,111.777
1297731627774,111.775
1297731687774,111.665
1297731747774,111.732
1297731807774,111.566
1297731867774,111.712
1297731927774,111.584
1297731987774,111.533
1297732047774,111.887
1297732107774,111.576
1297732167774,111.556
1297732227774,111.555
1297732287774,111.496
1297732347774,111.439
1297732407774,111.359
1297732467774,111.502
1297732527774,111.464
1297732587774,111.606
1297732647774,111.747
1297732707774,111.448
1297732767774,111.454
1297732827774,111.507
1297732887774,111.540
1297732947774,111.587
1297733007774,111.401
1297733067774,111.835
1297733127774,111.659
1297733187774,111.582
1297733247774,111.595
1297733307774,111.579
1297733367774,111.446
1297733427774,111.708
1297733487774,111.717
1297733547774,111.644
1297733607774,111.518
1297733667774,111.648
1297733727774,111.650
1297733787774,111.450
1297733847774,111.383
1297733907774,111.944
1297733967774,111.603
1297734027774,111.657
1297734087774,111.424
1297734147774,111.434
1297734207774,111.661
1297734267774,111.539
1297734327774,111.438
1297734387774,111.668
1297734447774,111.596
1297734507774,112.215
1297734567774,114.208
1297734627774,117.175
1297734687774,120.201
1297734747774,124.635
1297734807774,129.516
1297734867774,134.317
1297734927774,138.212
1297734987774,140.290
1297735047774,140.535
1297735107774,139.199
1297735167774,137.462
1297735227785,135.013
1297735287785,134.249
1297735347785,132.584
1297735407785,130.787
1297735467785,129.946
1297735527785,127.904
1297735587785,126.262
1297735647785,125.579
1297735707785,124.751
1297735767785,123.920
1297735827785,123.350
1297735887785,122.865
1297735947785,122.297
1297736007785,121.539
1297736067785,120.499
1297736127785,120.119
1297736187785,119.729
1297736247785,119.158
1297736307785,118.651
1297736367785,118.436
1297736427785,118.075
1297736487785,117.897
1297736547785,117.105
1297736607785,116.965
1297736667785,116.822
1297736727785,116.885
1297736787785,116.996
1297736847785,117.290
1297736907785,116.699
1297736967785,116.626
1297737027785,116.353
1297737087785,115.668
1297737147785,115.755
1297737207785,115.425
1297737267785,115.028
1297737327785,114.915
1297737387785,114.902
1297737447785,114.611
1297737507785,114.455
1297737567785,114.150
1297737627785,113.903
1297737687785,114.149
1297737747785,113.922
1297737807785,113.795
1297737867785,113.911
1297737927785,113.891
1297737987785,113.564
1297738047785,113.374
1297738107785,113.102
1297738167785,112.937
1297738227785,112.927
1297738287785,113.106
1297738347785,113.128
1297738407785,113.267
1297738467785,113.377
1297738527785,113.322
1297738587785,113.269
1297738647785,113.074
1297738707785,112.972
1297738767785,112.904
1297738827796,113.073
1297738887796,112.946
1297738947796,112.588
1297739007796,112.516
1297739067796,112.659
1297739127796,112.569
1297739187796,112.585
1297739247796,112.711
1297739307796,112.608
1297739367796,112.414
1297739427796,112.850
1297739487796,113.039
1297739547796,112.914
1297739607796,113.042
1297739667796,112.534
1297739727796,112.665
1297739787796,112.279
1297739847796,112.387
1297739907796,112.563
1297739967796,112.652
1297740027796,112.573
1297740087796,112.555
1297740147796,112.630
1297740207796,112.293
1297740267796,112.079
1297740327796,112.082
1297740387796,112.069
1297740447796,112.033
1297740507796,112.014
1297740567796,112.033
1297740627796,112.144
1297740687796,112.140
1297740747796,112.016
1297740807796,112.412
1297740867796,112.422
1297740927796,112.301
1297740987796,112.182
1297741047796,112.021
1297741107796,112.244
1297741167796,112.138
1297741227796,112.207
1297741287796,112.212
1297741347796,112.173
1297741407796,112.121
1297741467796,112.200
1297741527796,112.095
1297741587796,112.363
1297741647796,111.885
1297741707796,112.034
1297741767796,112.050
1297741827796,111.919
1297741887796,112.286
1297741947796,112.231
1297742007796,112.265
1297742067796,112.371
1297742127796,112.460
1297742187796,112.377
1297742247796,112.107
1297742307796,112.303
1297742367796,112.275
1297742427807,112.235
1297742487807,112.552
1297742547807,112.572
1297742607807,112.548
1297742667807,112.864
1297742727807,112.713
1297742787807,112.417
1297742847807,112.603
1297742907807,112.537
1297742967807,112.483
1297743027807,112.466
1297743087807,112.447
1297743147807,112.054
1297743207807,112.438
1297743267807,112.189
1297743327807,111.997
1297743387807,111.934
1297743447807,112.151
1297743507807,111.952
1297743567807,112.154
1297743627807,111.972
1297743687807,111.913
1297743747807,111.850
1297743807807,111.713
1297743867807,112.006
1297743927807,111.971
1297743987807,111.846
1297744047807,111.696
1297744107807,112.027
1297744167807,112.669
1297744227807,113.050
1297744287807,113.417
1297744347807,113.957
1297744407807,114.134
1297744467807,113.794
1297744527807,113.854
1297744587807,113.316
1297744647807,113.126
1297744707807,112.709
1297744767807,112.729
1297744827807,112.180
1297744887807,112.108
1297744947807,111.943
1297745007807,111.821
1297745067807,111.858
1297745127807,111.874
1297745187807,111.600
1297745247807,111.809
1297745307807,111.777
1297745367807,111.681
1297745427807,111.670
1297745487807,111.664
1297745547807,111.841
1297745607807,111.676
1297745667807,111.776
1297745727807,111.840
1297745787807,111.783
1297745847807,111.779
1297745907807,111.868
1297745967807,111.921
1297746027818,111.828
1297746087818,112.104
1297746147818,112.054
1297746207818,112.278
1297746267818,112.330
1297746327818,112.338
1297746387818,112.251
1297746447818,112.207
1297746507818,112.375
1297746567818,112.289
1297746627818,112.375
1297746687818,112.496
1297746747818,112.650
1297746807818,112.521
1297746867818,112.543
1297746927818,112.474
1297746987818,112.812
1297747047818,112.647
1297747107818,112.741
1297747167818,112.592
1297747227818,112.580
1297747287818,112.969
1297747347818,112.741
1297747407818,112.625
1297747467818,112.762
1297747527818,112.948
1297747587818,112.604
1297747647818,112.621
1297747707818,112.722
1297747767818,112.561
1297747827818,112.643
1297747887818,112.552
1297747947818,112.638
1297748007818,112.641
1297748067818,112.357
1297748127818,112.434
1297748187818,112.678
1297748247818,112.637
1297748307818,112.466
1297748367818,112.508
1297748427818,112.357
1297748487818,112.345
1297748547818,112.347
1297748607818,112.658
1297748667818,112.471
1297748727818,112.592
1297748787818,112.745
1297748847818,112.617
1297748907818,112.766
1297748967818,112.442
1297749027818,112.666
1297749087818,112.539
1297749147818,112.746
1297749207818,112.535
1297749267818,112.664
1297749327818,112.722
1297749387818,112.569
1297749447818,112.785
1297749507818,112.704
1297749567818,112.470
1297749627829,112.705
1297749687829,112.672
1297749747829,112.383
1297749807829,112.680
1297749867829,112.593
1297749927829,112.615
1297749987829,112.625
1297750047829,112.705
1297750107829,112.627
1297750167829,112.678
1297750227829,112.676
1297750287829,112.681
1297750347829,112.563
1297750407829,112.620
1297750467829,112.712
1297750527829,112.654
1297750587829,112.716
1297750647829,112.757
1297750707829,112.708
1297750767829,112.485
1297750827829,112.941
1297750887829,112.628
1297750947829,112.696
1297751007829,112.631
1297751067829,112.776
1297751127829,112.916
1297751187829,112.493
1297751247829,112.453
1297751307829,112.596
1297751367829,112.515
1297751427829,112.615
1297751487829,112.355
1297751547829,112.662
1297751607829,112.527
1297751667829,112.732
1297751727829,112.585
1297751787829,112.583
1297751847829,112.345
1297751907829,112.401
1297751967829,112.432
1297752027829,112.418
1297752087829,112.568
1297752147829,112.555
1297752207829,112.531
1297752267829,112.502
1297752327829,112.675
1297752387829,112.463
1297752447829,112.609
1297752507829,112.543
1297752567829,112.625
1297752627829,112.561
1297752687829,112.611
1297752747829,112.388
1297752807829,112.577
1297752867829,112.639
1297752927829,112.274
1297752987829,112.551
1297753047829,112.379
1297753107829,112.356
1297753167829,112.409
1297753227841,112.644
1297753287841,112.470
1297753347841,112.599
1297753407841,112.456
1297753467841,112.322
1297753527841,112.480
1297753587841,112.462
1297753647841,112.260
1297753707841,112.316
1297753767841,112.543
1297753827841,112.663
1297753887841,112.774
1297753947841,112.309
1297754007841,112.708
1297754067841,112.914
1297754127841,112.655
1297754187841,112.832
1297754247841,112.657
1297754307841,112.717
1297754367841,112.732
1297754427841,112.744
1297754487841,112.866
1297754547841,112.740
1297754607841,112.790
1297754667841,112.829
1297754727841,112.676
1297754787841,112.993
1297754847841,112.855
1297754907841,112.942
1297754967841,112.884
1297755027841,112.766
1297755087841,112.780
1297755147841,112.630
1297755207841,112.663
1297755267841,112.765
1297755327841,112.706
1297755387841,112.669
1297755447841,112.676
1297755507841,112.812
1297755567841,112.851
1297755627841,112.769
1297755687841,112.673
1297755747841,112.580
1297755807841,112.894
1297755867841,112.755
1297755927841,112.913
1297755987841,112.664
1297756047841,112.845
1297756107841,112.898
1297756167841,113.104
1297756227841,112.734
1297756287841,113.069
1297756347841,112.622
1297756407841,112.558
1297756467841,112.804
1297756527841,112.565
1297756587841,112.650
1297756647841,112.717
1297756707841,113.124
1297756767841,113.003
1297756827853,113.079
1297756887853,113.018
1297756947853,112.881
1297757007853,112.821
1297757067853,112.786
1297757127853,112.728
1297757187853,112.711
1297757247853,112.594
1297757307853,112.817
1297757367853,112.723
1297757427853,112.585
1297757487853,112.521
1297757547853,112.742
1297757607853,112.649
1297757667853,112.698
1297757727852,112.797
1297757787852,112.691
1297757847852,112.645
1297757907852,112.758
1297757967852,112.677
1297758027852,112.588
1297758087853,112.677
1297758147853,112.564
1297758207853,112.799
1297758267853,112.707
1297758327853,112.610
1297758387853,112.839
1297758447853,112.662
1297758507853,112.985
1297758567853,112.802
1297758627853,113.097
1297758687853,112.805
1297758747853,112.883
1297758807853,112.944
1297758867853,112.971
1297758927853,112.642
1297758987853,112.924
1297759047852,112.692
1297759107852,112.839
1297759167852,112.898
1297759227852,112.522
1297759287852,112.711
1297759347852,112.770
1297759407853,112.973
1297759467853,112.842
1297759527853,112.765
1297759587853,113.024
1297759647853,112.938
1297759707853,112.958
1297759767853,112.898
1297759827853,113.002
1297759887853,113.035
1297759947853,112.781
1297760007853,113.202
1297760067853,113.081
1297760127853,113.023
1297760187853,112.883
1297760247853,112.824
1297760307853,113.059
1297760367853,113.167
1297760427864,113.116
1297760487864,113.369
1297760547864,113.707
1297760607864,113.133
1297760667864,113.410
1297760727864,112.943
1297760787864,112.792
1297760847864,113.000
1297760907864,112.934
1297760967864,113.052
1297761027864,113.031
1297761087864,112.838
1297761147864,112.930
1297761207864,112.987
1297761267864,113.112
1297761327864,113.106
1297761387864,112.991
1297761447864,113.167
1297761507864,112.993
1297761567864,113.062
1297761627864,113.129
1297761687864,112.892
1297761747864,113.061
1297761807864,112.992
1297761867864,112.889
1297761927864,112.919
1297761987864,113.121
1297762047864,113.022
1297762107864,112.905
1297762167864,112.916
1297762227864,113.088
1297762287864,112.923
1297762347864,113.161
1297762407864,112.925
1297762467864,113.028
1297762527864,113.112
1297762587864,113.049
1297762647864,112.861
1297762707864,112.837
1297762767864,113.066
1297762827864,112.780
1297762887864,112.879
1297762947864,112.912
1297763007864,112.887
1297763067864,113.179
1297763127864,112.832
1297763187864,113.171
1297763247864,113.077
1297763307864,113.199
1297763367864,113.246
1297763427864,113.272
1297763487864,113.174
1297763547864,113.137
1297763607864,113.049
1297763667864,113.216
1297763727864,113.346
1297763787864,113.056
1297763847864,113.013
1297763907864,113.066
1297763967864,112.874
1297764027876,113.035
1297764087876,113.267
1297764147876,113.054
1297764207876,113.128
1297764267876,112.835
1297764327876,112.932
1297764387876,113.114
1297764447876,113.050
1297764507876,112.793
1297764567876,112.844
1297764627876,112.971
1297764687876,112.987
1297764747876,112.870
1297764807876,112.949
1297764867876,112.999
1297764927876,113.054
1297764987876,112.869
1297765047876,112.975
1297765107876,112.991
1297765167876,112.611
1297765227876,112.975
1297765287876,112.893
1297765347876,112.820
1297765407876,112.943
1297765467876,112.766
1297765527876,112.612
1297765587876,112.716
1297765647876,112.549
1297765707876,112.523
1297765767876,112.691
1297765827876,112.671
1297765887876,112.600
1297765947876,112.819
1297766007876,112.792
1297766067876,112.699
1297766127876,112.759
1297766187876,112.673
1297766247876,112.731
1297766307876,112.582
1297766367876,112.598
1297766427876,112.798
1297766487876,112.864
1297766547876,112.828
1297766607876,112.615
1297766667876,112.573
1297766727876,112.339
1297766787876,112.500
1297766847876,112.558
1297766907876,112.759
1297766967876,112.639
1297767027876,112.758
1297767087876,112.414
1297767147876,112.731
1297767207876,112.603
1297767267876,112.563
1297767327876,112.786
1297767387876,112.647
1297767447876,112.592
1297767507876,112.431
1297767567876,112.594
1297767627888,112.350
1297767687888,112.330
1297767747888,112.599
1297767807888,112.358
1297767867888,112.523
1297767927888,112.476
1297767987888,112.515
1297768047888,112.520
1297768107888,112.335
1297768167888,112.438
1297768227888,112.357
1297768287888,112.286
1297768347888,112.461
1297768407888,112.354
1297768467888,112.373
1297768527888,112.712
1297768587887,112.361
1297768647887,112.621
1297768707888,112.460
1297768767888,112.360
1297768827888,112.500
1297768887888,112.330
1297768947888,112.533
1297769007888,112.334
1297769067888,112.416
1297769127888,112.362
1297769187888,112.247
1297769247888,112.231
1297769307888,112.235
1297769367888,112.141
1297769427888,112.163
1297769487888,112.233
1297769547888,112.197
1297769607888,112.199
1297769667888,111.892
1297769727888,112.131
1297769787888,112.041
1297769847888,112.134
1297769907887,112.228
1297769967887,111.869
1297770027888,112.035
1297770087888,112.021
1297770147888,112.026
1297770207888,112.019
1297770267888,111.994
1297770327888,112.094
1297770387888,111.736
1297770447888,111.893
1297770507888,111.977
1297770567888,111.813
1297770627888,111.756
1297770687888,111.771
1297770747888,111.624
1297770807888,111.823
1297770867888,111.569
1297770927888,111.704
1297770987888,112.107
1297771047888,111.893
1297771107888,111.841
1297771167888,111.649
1297771227899,111.851
1297771287899,111.730
1297771347899,111.817
1297771407899,111.761
1297771467899,111.693
1297771527899,111.790
1297771587899,111.711
1297771647899,111.830
1297771707899,111.953
1297771767899,111.972
1297771827899,111.491
1297771887899,111.884
1297771947899,111.640
1297772007899,111.512
1297772067899,111.687
1297772127899,111.635
1297772187899,111.319
1297772247899,111.716
1297772307899,111.612
1297772367899,111.615
1297772427899,111.712
1297772487899,111.803
1297772547899,111.715
1297772607899,111.902
1297772667899,111.720
1297772727899,111.835
1297772787899,111.706
1297772847899,111.972
1297772907899,111.932
1297772967899,111.929
1297773027899,111.758
1297773087899,112.125
1297773147899,112.089
1297773207899,112.064
1297773267899,111.964
1297773327899,111.937
1297773387899,112.073
1297773447899,112.168
1297773507899,111.838
1297773567899,111.786
1297773627899,112.068
1297773687899,111.931
1297773747899,112.160
1297773807899,111.976
1297773867899,111.795
1297773927899,112.151
1297773987899,111.946
1297774047899,112.020
1297774107899,111.737
1297774167899,111.937
1297774227899,111.812
1297774287899,112.052
1297774347899,112.119
1297774407899,111.853
1297774467899,112.098
1297774527899,111.888
1297774587899,111.732
1297774647899,112.075
1297774707899,112.089
1297774767899,112.105
1297774827911,111.923
1297774887911,111.710
1297774947911,112.120
1297775007911,111.815
1297775067911,111.987
1297775127911,112.140
1297775187911,112.103
1297775247911,111.916
1297775307911,112.223
1297775367911,111.980
1297775427911,111.975
1297775487911,112.141
1297775547911,112.215
1297775607911,111.923
1297775667911,112.038
1297775727911,112.121
1297775787911,112.209
1297775847911,112.031
1297775907911,112.244
1297775967911,112.296
1297776027911,112.213
1297776087911,112.532
1297776147911,112.515
1297776207911,112.493
1297776267911,112.197
1297776327911,112.651
1297776387911,112.439
1297776447911,112.895
1297776507911,112.735
1297776567911,112.280
1297776627911,112.644
1297776687911,112.778
1297776747911,112.831
1297776807911,112.559
1297776867911,112.735
1297776927911,112.816
1297776987911,112.596
1297777047911,112.817
1297777107911,112.890
1297777167911,112.591
1297777227911,112.963
1297777287911,112.699
1297777347911,112.956
1297777407911,112.710
1297777467911,113.192
1297777527911,112.856
1297777587911,112.955
1297777647911,112.944
1297777707911,112.717
1297777767911,112.883
1297777827911,113.088
1297777887911,112.986
1297777947911,112.886
1297778007911,112.816
1297778067911,112.775
1297778127911,112.890
1297778187911,113.125
1297778247911,113.114
1297778307911,112.918
1297778367911,112.732
1297778427922,112.927
1297778487922,113.146
1297778547922,113.064
1297778607922,112.928
1297778667922,113.141
1297778727922,112.836
1297778787922,112.858
1297778847922,113.097
1297778907922,113.065
1297778967922,112.647
1297779027922,112.932
1297779087922,112.811
1297779147922,112.830
1297779207922,112.759
1297779267922,113.033
1297779327922,113.001
1297779387922,112.910
1297779447922,112.847
1297779507922,112.980
1297779567922,112.821
1297779627922,112.992
1297779687922,112.832
1297779747922,112.925
1297779807922,113.219
1297779867922,112.890
1297779927922,112.906
1297779987922,112.656
1297780047922,112.645
1297780107922,112.877
1297780167922,112.878
1297780227922,112.820
1297780287922,112.462
1297780347922,112.621
1297780407922,112.933
1297780467922,112.784
1297780527922,112.988
1297780587922,112.920
1297780647922,113.015
1297780707922,112.980
1297780767922,113.264
1297780827922,113.400
1297780887922,113.301
1297780947922,113.414
1297781007922,113.146
1297781067922,113.294
1297781127922,113.449
1297781187922,113.359
1297781247922,113.416
1297781307922,113.409
1297781367922,113.060
1297781427922,113.387
1297781487922,113.619
1297781547922,113.632
1297781607922,113.460
1297781667922,113.389
1297781727922,113.355
1297781787922,113.419
1297781847922,113.660
1297781907922,113.157
1297781967922,113.191
1297782027934,113.378
1297782087934,113.299
1297782147934,113.523
1297782207934,113.084
1297782267934,113.310
1297782327934,113.116
1297782387934,113.214
1297782447934,112.966
1297782507934,112.998
1297782567934,112.831
1297782627934,113.204
1297782687934,113.077
1297782747934,112.997
1297782807934,112.767
1297782867934,112.869
1297782927934,112.644
1297782987934,112.839
1297783047934,112.956
1297783107934,112.769
1297783167934,112.547
1297783227934,112.893
1297783287934,112.834
1297783347934,112.643
1297783407934,112.576
1297783467934,112.934
1297783527934,112.812
1297783587934,113.124
1297783647934,112.935
1297783707934,113.077
1297783767934,112.895
1297783827934,112.974
1297783887934,112.960
1297783947934,113.070
1297784007934,112.888
1297784067934,113.111
1297784127934,113.040
1297784187934,112.876
1297784247934,112.872
1297784307934,112.982
1297784367934,113.143
1297784427934,112.905
1297784487934,113.011
1297784547934,113.221
1297784607934,113.031
1297784667934,113.084
1297784727934,113.083
1297784787934,113.123
1297784847934,112.909
1297784907934,113.025
1297784967934,112.857
1297785027934,112.999
1297785087934,113.230
1297785147934,113.293
1297785207934,112.920
1297785267934,113.109
1297785327934,113.125
1297785387934,113.114
1297785447934,113.162
1297785507934,113.352
1297785567934,113.158
1297785627945,113.233
1297785687945,113.226
1297785747945,113.241
1297785807945,113.110
1297785867945,113.403
1297785927945,113.321
1297785987945,113.232
1297786047945,113.098
1297786107945,113.325
1297786167945,113.240
1297786227945,113.340
1297786287945,113.217
1297786347945,113.059
1297786407945,113.418
1297786467945,113.090
1297786527945,113.351
1297786587945,113.136
1297786647945,113.291
1297786707945,113.323
1297786767945,113.238
1297786827945,113.227
1297786887945,113.339
1297786947945,113.280
1297787007945,113.267
1297787067945,113.365
1297787127945,113.559
1297787187945,113.313
1297787247945,113.313
1297787307945,113.464
1297787367945,113.480
1297787427945,113.455
1297787487945,113.535
1297787547945,113.349
1297787607945,113.509
1297787667945,113.840
1297787727945,113.450
1297787787945,113.584
1297787847945,113.554
1297787907945,113.638
1297787967945,113.778
1297788027945,113.726
1297788087945,113.673
1297788147945,113.683
1297788207945,113.638
1297788267945,113.712
1297788327945,113.515
1297788387945,113.593
1297788447945,113.479
1297788507945,114.031
1297788567945,113.298
1297788627945,113.654
1297788687945,113.531
1297788747945,113.342
1297788807945,113.709
1297788867945,113.504
1297788927945,113.578
1297788987945,113.480
1297789047945,113.517
1297789107945,113.532
1297789167945,113.521
1297789227956,113.599
1297789287956,113.335
1297789347956,113.507
1297789407956,113.706
1297789467956,113.401
1297789527956,113.367
1297789587956,113.579
1297789647956,113.797
1297789707956,113.637
1297789767956,113.975
1297789827956,113.619
1297789887956,113.550
1297789947956,113.590
1297790007956,113.771
1297790067956,113.531
1297790127956,113.579
1297790187956,113.627
1297790247956,113.502
1297790307956,113.638
1297790367956,113.722
1297790427956,113.689
1297790487956,113.433
1297790547956,113.453
1297790607956,113.573
1297790667956,113.713
1297790727956,113.624
1297790787956,113.824
1297790847956,113.735
1297790907956,113.806
1297790967956,113.986
1297791027956,113.715
1297791087956,113.675
1297791147956,114.033
1297791207956,113.737
1297791267956,113.749
1297791327956,113.691
1297791387956,113.409
1297791447956,113.437
1297791507956,113.509
1297791567956,113.664
1297791627956,113.795
1297791687956,113.441
1297791747956,113.532
1297791807956,113.355
1297791867956,113.556
1297791927956,113.331
1297791987956,113.524
1297792047956,113.671
1297792107956,113.539
1297792167956,113.617
1297792227956,113.431
1297792287956,113.440
1297792347956,113.677
1297792407956,113.304
1297792467956,113.734
1297792527956,113.521
1297792587956,113.628
1297792647956,113.578
1297792707956,113.517
1297792767956,113.471
1297792827967,113.530
1297792887967,113.540
1297792947967,113.617
1297793007967,113.507
1297793067967,113.695
1297793127967,113.290
1297793187967,113.386
1297793247967,113.345
1297793307967,113.720
1297793367967,113.286